DMSP 5D-2 F13 DEB, 42329

Orbit data source: Space-Track

DMSP 5D-2 F13 DEB, 42329 is space debris in SSO originally from a launch on Fri, 24 Mar 1995 UTC launched from the Air Force Western Test Range (AFWTR). Debris objects in space refer to the collection of defunct objects orbiting the Earth. Examples of debris include non-operational satellites, rocket bodies, and fragments generated from explosions, collisions, or faulty payload assembly.

Loading next visibility...
DMSP 5D-2 F13 DEB details
Identifier
42329, 1995-015JX
Orbit
SSO
Last TLE update4 months ago
Origin
Flag of USUSAF SMC (US)
ManufacturerUnknown
MissionSpacecraft
Bus & MotorUnknown
MassUnknown
Launch date (UTC)
1995-03-24 (30 years ago)
Launch vehicleUnknown
Launch site
Air Force Western Test Range (AFWTR)
Object type
Payload
Rocket body
Debris
Shape & HBRUnknown
Radar Cross SectionSmall (<0.1 m²)

Expand to show TLE details & history

TLE from 4 months ago
0 DMSP 5D-2 F13 DEB
1 42329U 95015JX  24224.97830317  .00103400  00000-0  16989-1 0  9994
2 42329  98.5432 306.7124 0046746 128.9840 231.5542 14.69299344  9175
Epoch: 2024-08-11T23:28Z
Definitive object data (Epoch: 2024-08-11T23:28:45.393Z)
Latitude-0.00007°
Longitude-6.39298°
Altitude686.857 km
Speed7.502 km/s
True Right ascension20h 26m 50s
True Declination0° 00' 00"
Sunlit
Object was in full shadow at TLE epoch
Visualization TLE readout
Latitude59.60366°
Longitude-48.6895°
Altitude543.015 km
Speed7.611 km/s
Apparent Right ascension19h 12m 34s
Apparent Declination13° 21' 03"
Sunlit
Object is in daylight
Visualization observer readout
Local Sidereal Time08:19:36
Azimuth19.902° NNE
Elevation-34.499°
Doppler factor1
Orbital elements
Apogee altitude693.293 km
Perigee altitude627.488 km
Semi-major axis7,038.528 km
Eccentricity0.0046746
Inclination98.5432°
RAAN306.7124°
Arg. of periapsis128.984°
True anomaly231.13619°
Mean anomaly231.5542°
Eccentric anomaly231.34504°
Mean motion3.67553 °/min
BSTAR0.016989
Orbital period97.94 mins
Loading maneuver chart data...

DMSP 5D-2 F13 DEB Visibility forecast

Observer location: undefined°, undefined

Span
Click to sort rows by Start time (UTC) header in descending order
Start Az.
Max El. time (UTC)
Max El. Az.
Max El.
End time (UTC)
End Az.
6 mins2024-12-05 18:23:14.148Z40.827° NE2024-12-05 18:26:14.148Z94.235° ESE23.136°2024-12-05 18:29:14.148Z151.545° SSE
4 mins2024-12-05 19:59:14.148Z327.723° NNW2024-12-05 20:01:14.148Z286.968° WNW19.472°2024-12-05 20:03:14.148Z250.432° W
4 mins2024-12-06 05:10:14.148Z93.806° ESE2024-12-06 05:11:14.148Z76.227° E16.65°2024-12-06 05:14:14.148Z25.374° NE
5 mins2024-12-06 06:44:14.148Z211.255° SW2024-12-06 06:46:14.148Z260.234° W28.521°2024-12-06 06:49:14.148Z322.013° NNW
|